Weather History for Keahole Point, HI

Change the Weather History Date:

Sunday, March 24, 2013

  Actual Average Record
Temperature  
Mean Temperature 76 °F -  
Max Temperature 81 °F 79 °F 89 °F (1983)
Min Temperature 71 °F 68 °F 66 °F (1991)
Cooling Degree Days 11    
Growing Degree Days 26 (Base 50)    
Moisture  
Dew Point 66 °F    
Average Humidity 74    
Maximum Humidity 87    
Minimum Humidity 56    
Precipitation  
Precipitation 0.00 in - - ()
Sea Level Pressure  
Sea Level Pressure 29.96 in    
Wind  
Wind Speed 9 mph (ESE)    
Max Wind Speed 16 mph    
Max Gust Speed -    
Visibility 10 miles    
Events Rain    
Averages and records for this station are not official NWS values.
T = Trace of Precipitation, MM = Missing Value Source: NWS Daily Summary

Daily Weather History Graph

Daily Weather History Graph

Search for Another Location

Airport:

Trip Planner

Search our weather history database for the weather conditions in past years. The results will help you decide how hot, cold, wet, or windy it might be!

Date:

Astronomy

Mar. 24, 2013 Rise Set
Actual Time 6:24 AM HST 6:36 PM HST
Civil Twilight 6:02 AM HST 6:58 PM HST
Nautical Twilight 5:36 AM HST 7:24 PM HST
Astronomical Twilight 5:11 AM HST 7:49 PM HST
Moon 4:30 PM HST (3/24) 4:23 AM HST (3/24)
Length of Visible Light 12h 55m
Length of Day
12h 12m
Waxing Gibbous, 93% of the Moon is Illuminated
Mar 24
Waxing Gibbous
Mar 26
Full
Apr 2
Last Quarter
Apr 9
New
Apr 18
First Quarter

Hourly Weather History & Observations

Time (HST) Temp. Heat Index Dew Point Humidity Pressure Visibility Wind Dir Wind Speed Gust Speed Precip Events Conditions
12:53 AM 73.0 °F - 64.9 °F 76% 29.97 in 10.0 mi SE 9.2 mph - N/A   Mostly Cloudy
1:14 AM 73.4 °F - 66.2 °F 78% 29.96 in 10.0 mi SE 12.7 mph - N/A   Mostly Cloudy
1:49 AM 71.6 °F - 66.2 °F 83% 29.95 in 10.0 mi SE 15.0 mph - 0.00 in Rain Light Rain
1:53 AM 72.0 °F - 66.9 °F 84% 29.95 in 10.0 mi SE 11.5 mph - 0.00 in Rain Light Rain
2:53 AM 72.0 °F - 66.9 °F 84% 29.93 in 10.0 mi SE 9.2 mph - 0.00 in   Partly Cloudy
3:53 AM 72.0 °F - 66.9 °F 84% 29.93 in 10.0 mi SE 6.9 mph - N/A   Mostly Cloudy
4:41 AM 71.6 °F - 66.2 °F 83% 29.93 in 10.0 mi East 4.6 mph - N/A   Overcast
4:53 AM 72.0 °F - 66.9 °F 84% 29.94 in 10.0 mi ENE 5.8 mph - N/A   Overcast
5:15 AM 73.4 °F - 66.2 °F 78% 29.94 in 10.0 mi SE 5.8 mph - N/A   Overcast
5:53 AM 72.0 °F - 68.0 °F 87% 29.95 in 10.0 mi SE 5.8 mph - 0.00 in   Overcast
6:53 AM 72.0 °F - 68.0 °F 87% 29.97 in 10.0 mi SE 8.1 mph - N/A   Overcast
7:53 AM 73.0 °F - 66.9 °F 81% 30.00 in 10.0 mi Calm Calm - N/A   Overcast
8:53 AM 75.0 °F - 66.9 °F 76% 30.01 in 10.0 mi ESE 6.9 mph - N/A   Scattered Clouds
9:53 AM 77.0 °F - 66.0 °F 69% 30.03 in 10.0 mi SSE 3.5 mph - N/A   Overcast
10:53 AM 78.1 °F - 63.0 °F 60% 30.02 in 10.0 mi Calm Calm - N/A   Mostly Cloudy
11:53 AM 81.0 °F 82.5 °F 64.0 °F 56% 29.99 in 10.0 mi NW 9.2 mph - N/A   Clear
12:53 PM 80.1 °F 82.3 °F 66.9 °F 64% 29.97 in 10.0 mi NW 16.1 mph - N/A   Clear
1:53 PM 79.0 °F - 66.0 °F 64% 29.94 in 10.0 mi NNW 13.8 mph - N/A   Scattered Clouds
2:53 PM 80.1 °F 81.9 °F 64.9 °F 60% 29.91 in 10.0 mi North 12.7 mph - N/A   Mostly Cloudy
3:53 PM 78.1 °F - 66.0 °F 66% 29.92 in 10.0 mi NNW 9.2 mph - N/A   Overcast
4:53 PM 78.1 °F - 64.9 °F 64% 29.92 in 10.0 mi NW 6.9 mph - N/A   Overcast
5:53 PM 78.1 °F - 64.9 °F 64% 29.92 in 10.0 mi NW 6.9 mph - N/A   Mostly Cloudy
6:53 PM 77.0 °F - 66.0 °F 69% 29.93 in 10.0 mi NW 6.9 mph - N/A   Scattered Clouds
7:53 PM 75.9 °F - 66.0 °F 71% 29.95 in 10.0 mi NNW 5.8 mph - N/A   Clear
8:53 PM 75.0 °F - 66.0 °F 73% 29.97 in 10.0 mi SE 4.6 mph - N/A   Clear
9:53 PM 73.9 °F - 64.9 °F 73% 29.98 in 10.0 mi SE 9.2 mph - N/A   Scattered Clouds
10:53 PM 73.0 °F - 64.0 °F 73% 29.99 in 10.0 mi SE 11.5 mph - N/A   Clear
11:53 PM 73.0 °F - 64.9 °F 76% 29.97 in 10.0 mi SE 10.4 mph - N/A   Clear